Weather History for KMZZ - December, 2013

Change the Weather History Date:

Saturday, December 7, 2013

  Actual Average (KMIE) Record (KMIE)
Temperature  
Mean Temperature 18 °F 33 °F  
Max Temperature 78 °F 41 °F 63 °F (1963)
Min Temperature 12 °F 26 °F -1 °F (1977)
Degree Days  
Heating Degree Days 47 32  
Month to date heating degree days 214  
Since 1 July heating degree days 1349  
Cooling Degree Days 0 0  
Month to date cooling degree days 0  
Year to date cooling degree days 956  
Moisture  
Dew Point 12 °F    
Average Humidity 73    
Maximum Humidity 85    
Minimum Humidity 58    
Precipitation  
Precipitation 0.00 in 0.10 in 0.90 in (1969)
Month to date precipitation 0.70  
Year to date precipitation 37.94  
Sea Level Pressure  
Sea Level Pressure 30.55 in    
Wind  
Wind Speed 6 mph (NNW)    
Max Wind Speed 9 mph    
Max Gust Speed -    
Visibility 10 miles    
Events      
T = Trace of Precipitation, MM = Missing Value Source: NWS Daily Summary

Daily Weather History Graph

Daily Weather History Graph

Search for Another Location

Airport or City:

Trip Planner

Search our weather history database for the weather conditions in past years. The results will help you decide how hot, cold, wet, or windy it might be!

Date:

Astronomy

Dec. 07, 2013 Rise Set
Actual Time 7:52 AM EST 5:15 PM EST
Civil Twilight 7:22 AM EST 5:46 PM EST
Nautical Twilight 6:48 AM EST 6:20 PM EST
Astronomical Twilight 6:14 AM EST 6:53 PM EST
Moon 11:36 AM EST (12/7) 10:57 PM EST (12/7)
Length of Visible Light 10h 24m
Length of Day
9h 23m
Waxing Crescent, 29% of the Moon is Illuminated
Dec 7
Waxing Crescent
Dec 9
First Quarter
Dec 17
Full
Dec 25
Last Quarter
Jan 1
New

Hourly Weather History & Observations

Time (EST) Temp. Windchill Dew Point Humidity Pressure Visibility Wind Dir Wind Speed Gust Speed Precip Events Conditions
12:15 AM 21.0 °F 12.4 °F 15.4 °F 79% 30.43 in 10.0 mi NW 6.9 mph - N/A   Clear
12:35 AM 20.5 °F 11.7 °F 14.9 °F 79% 30.43 in 10.0 mi NW 6.9 mph - N/A   Clear
12:55 AM 19.9 °F 10.1 °F 14.5 °F 80% 30.43 in 10.0 mi NW 8.1 mph - N/A   Clear
1:15 AM 19.6 °F 10.6 °F 14.2 °F 80% 30.44 in 10.0 mi NW 6.9 mph - N/A   Clear
1:35 AM 19.2 °F 10.2 °F 14.0 °F 80% 30.45 in 10.0 mi NW 6.9 mph - N/A   Clear
1:55 AM 18.5 °F 7.5 °F 13.8 °F 82% 30.45 in 10.0 mi NW 9.2 mph - N/A   Clear
2:15 AM 18.5 °F 7.5 °F 13.5 °F 81% 30.46 in 10.0 mi NW 9.2 mph - N/A   Clear
2:35 AM 18.3 °F 7.3 °F 13.3 °F 81% 30.46 in 10.0 mi NW 9.2 mph - N/A   Scattered Clouds
2:55 AM 17.8 °F 8.5 °F 12.7 °F 81% 30.48 in 10.0 mi WNW 6.9 mph - N/A   Scattered Clouds
3:15 AM 16.7 °F 7.2 °F 12.0 °F 82% 30.48 in 10.0 mi NW 6.9 mph - N/A   Clear
3:35 AM 16.2 °F 6.5 °F 11.3 °F 81% 30.49 in 10.0 mi NW 6.9 mph - N/A   Clear
3:55 AM 16.2 °F 6.5 °F 11.3 °F 81% 30.49 in 10.0 mi NW 6.9 mph - N/A   Clear
4:15 AM 15.8 °F 7.2 °F 11.1 °F 82% 30.49 in 10.0 mi NW 5.8 mph - N/A   Clear
4:35 AM 15.3 °F 6.6 °F 10.8 °F 82% 30.49 in 10.0 mi NW 5.8 mph - N/A   Clear
4:55 AM 14.5 °F 5.7 °F 10.4 °F 84% 30.50 in 10.0 mi NW 5.8 mph - N/A   Clear
5:15 AM 14.2 °F 5.3 °F 10.2 °F 84% 30.51 in 10.0 mi NW 5.8 mph - N/A   Clear
5:35 AM 13.8 °F 6.2 °F 9.9 °F 84% 30.52 in 10.0 mi NW 4.6 mph - N/A   Clear
5:55 AM 14.2 °F 6.7 °F 10.0 °F 84% 30.52 in 10.0 mi NW 4.6 mph - N/A   Clear
6:15 AM 14.2 °F 6.7 °F 9.9 °F 83% 30.53 in 10.0 mi NW 4.6 mph - N/A   Clear
6:35 AM 13.8 °F 6.2 °F 9.5 °F 83% 30.53 in 10.0 mi NW 4.6 mph - N/A   Clear
6:55 AM 13.3 °F 5.6 °F 9.3 °F 84% 30.54 in 10.0 mi NW 4.6 mph - N/A   Clear
7:15 AM 13.1 °F 5.4 °F 9.1 °F 84% 30.55 in 10.0 mi NW 4.6 mph - N/A   Clear
7:35 AM 12.7 °F 5.0 °F 8.8 °F 84% 30.55 in 10.0 mi NW 4.6 mph - N/A   Clear
7:55 AM 12.2 °F 4.3 °F 8.4 °F 85% 30.56 in 10.0 mi NW 4.6 mph - N/A   Clear
8:15 AM 12.6 °F 4.8 °F 8.4 °F 83% 30.57 in 10.0 mi NW 4.6 mph - N/A   Clear
8:35 AM 12.7 °F 5.0 °F 8.6 °F 84% 30.58 in 10.0 mi WNW 4.6 mph - N/A   Clear
8:55 AM 14.2 °F 5.3 °F 9.7 °F 82% 30.58 in 10.0 mi NW 5.8 mph - N/A   Clear
9:15 AM 15.3 °F 6.6 °F 10.4 °F 81% 30.59 in 10.0 mi NW 5.8 mph - N/A   Clear
9:35 AM 16.5 °F 8.1 °F 10.9 °F 79% 30.59 in 10.0 mi NW 5.8 mph - N/A   Clear
9:55 AM 17.6 °F 7.3 °F 11.5 °F 77% 30.59 in 10.0 mi NNW 8.1 mph - N/A   Clear
10:15 AM 18.7 °F 9.5 °F 12.2 °F 76% 30.60 in 10.0 mi NW 6.9 mph - N/A   Clear
10:35 AM 19.9 °F 10.1 °F 12.6 °F 73% 30.60 in 10.0 mi NNW 8.1 mph - N/A   Clear
10:55 AM 20.8 °F 12.1 °F 12.6 °F 70% 30.61 in 10.0 mi NNW 6.9 mph - N/A   Clear
11:15 AM 21.6 °F 12.1 °F 13.1 °F 70% 30.61 in 10.0 mi NNW 8.1 mph - N/A   Clear
11:35 AM 22.3 °F 14.9 °F 13.1 °F 68% 30.61 in 10.0 mi NNW 5.8 mph - N/A   Clear
11:55 AM 22.6 °F 14.3 °F 12.9 °F 66% 30.61 in 10.0 mi North 6.9 mph - N/A   Scattered Clouds
12:15 PM 23.2 °F 14.1 °F 13.3 °F 66% 30.60 in 10.0 mi North 8.1 mph - N/A   Scattered Clouds
12:35 PM 23.0 °F 17.0 °F 12.4 °F 64% 30.59 in 10.0 mi NNW 4.6 mph - N/A   Mostly Cloudy
12:55 PM 23.2 °F 16.0 °F 12.4 °F 63% 30.58 in 10.0 mi NW 5.8 mph - N/A   Scattered Clouds
1:15 PM 23.7 °F 16.6 °F 12.7 °F 63% 30.59 in 10.0 mi NW 5.8 mph - N/A   Scattered Clouds
1:35 PM 23.9 °F 16.8 °F 12.2 °F 61% 30.57 in 10.0 mi NW 5.8 mph - N/A   Mostly Cloudy
1:55 PM 23.9 °F 19.5 °F 12.4 °F 62% 30.57 in 10.0 mi NW 3.5 mph - N/A   Scattered Clouds
2:15 PM 24.4 °F 20.1 °F 12.4 °F 60% 30.57 in 10.0 mi NW 3.5 mph - N/A   Scattered Clouds
2:35 PM 24.4 °F 16.5 °F 12.4 °F 60% 30.56 in 10.0 mi North 6.9 mph - N/A   Clear
2:55 PM 24.3 °F 16.3 °F 12.0 °F 60% 30.56 in 10.0 mi NW 6.9 mph - N/A   Clear
3:15 PM 24.6 °F 16.7 °F 11.8 °F 58% 30.56 in 10.0 mi NNW 6.9 mph - N/A   Clear
3:35 PM 24.1 °F 16.0 °F 11.3 °F 58% 30.57 in 10.0 mi North 6.9 mph - N/A   Clear
3:55 PM 24.1 °F 16.0 °F 11.5 °F 59% 30.56 in 10.0 mi NW 6.9 mph - N/A   Clear
4:15 PM 24.1 °F 18.2 °F 11.8 °F 60% 30.56 in 10.0 mi NW 4.6 mph - N/A   Clear
4:35 PM 23.7 °F 16.6 °F 11.5 °F 60% 30.56 in 10.0 mi NNW 5.8 mph - N/A   Scattered Clouds
4:55 PM 23.5 °F 19.1 °F 12.0 °F 61% 30.56 in 10.0 mi NNW 3.5 mph - N/A   Clear
5:15 PM 23.2 °F 18.7 °F 12.6 °F 64% 30.56 in 10.0 mi NNW 3.5 mph - N/A   Clear
5:35 PM 22.8 °F 18.2 °F 12.7 °F 65% 30.56 in 10.0 mi NNW 3.5 mph - N/A   Clear
5:55 PM 22.6 °F 18.0 °F 12.2 °F 64% 30.57 in 10.0 mi NNW 3.5 mph - N/A   Clear
6:15 PM 22.3 °F - 12.0 °F 65% 30.57 in 10.0 mi Calm Calm - N/A   Clear
6:35 PM 22.1 °F 17.4 °F 12.0 °F 65% 30.57 in 10.0 mi NNW 3.5 mph - N/A   Clear
6:55 PM 21.7 °F - 11.8 °F 66% 30.59 in 10.0 mi Calm Calm - N/A   Clear
7:15 PM 21.4 °F 15.1 °F 11.8 °F 67% 30.59 in 10.0 mi NNW 4.6 mph - N/A   Clear
7:35 PM 21.2 °F 13.6 °F 11.8 °F 67% 30.59 in 10.0 mi North 5.8 mph - N/A   Clear
7:55 PM 21.2 °F 13.6 °F 11.8 °F 67% 30.60 in 10.0 mi North 5.8 mph - N/A   Clear
8:15 PM 20.5 °F 14.0 °F 12.7 °F 72% 30.59 in 10.0 mi NNE 4.6 mph - N/A   Clear
8:35 PM 19.8 °F 11.9 °F 12.6 °F 74% 30.59 in 10.0 mi NE 5.8 mph - N/A   Clear
8:55 PM 19.6 °F 11.7 °F 12.2 °F 73% 30.59 in 10.0 mi NNE 5.8 mph - N/A   Clear
9:15 PM 19.4 °F 11.5 °F 11.8 °F 72% 30.58 in 10.0 mi NE 5.8 mph - N/A   Clear
9:35 PM 19.0 °F 12.3 °F 11.8 °F 74% 30.57 in 10.0 mi NE 4.6 mph - N/A   Clear
9:55 PM 18.7 °F 11.9 °F 11.8 °F 75% 30.57 in 10.0 mi NE 4.6 mph - N/A   Clear
10:15 PM 18.3 °F 10.2 °F 11.8 °F 76% 30.57 in 10.0 mi ENE 5.8 mph - N/A   Clear
10:35 PM 18.3 °F 10.2 °F 12.0 °F 76% 30.56 in 10.0 mi NE 5.8 mph - N/A   Clear
10:55 PM 18.3 °F 10.2 °F 12.0 °F 76% 30.55 in 10.0 mi ENE 5.8 mph - N/A   Clear
11:15 PM 18.5 °F 8.4 °F 12.0 °F 76% 30.54 in 10.0 mi ENE 8.1 mph - N/A   Clear
11:35 PM 18.5 °F 7.5 °F 11.8 °F 75% 30.52 in 10.0 mi ENE 9.2 mph - N/A   Clear
11:55 PM 18.5 °F 8.4 °F 11.8 °F 75% 30.51 in 10.0 mi ENE 8.1 mph - N/A   Clear